Time,TemperatureF,DewpointF,PressureIn,WindDirection,WindDirectionDegrees,WindSpeedMPH,WindSpeedGustMPH,Humidity,HourlyPrecipIn,Conditions,Clouds,dailyrainin,SoftwareType,DateUTC
2013-10-14 00:09:00,55.2,49.0,30.37,East,86,2.0,4.0,80,0.00,,,0.00,weatherlink.com 1.10,2013-10-14 04:09:00,
2013-10-14 00:24:00,54.8,49.0,30.36,East,94,2.0,6.0,81,0.00,,,0.00,weatherlink.com 1.10,2013-10-14 04:24:00,
2013-10-14 00:39:00,54.6,49.0,30.36,SE,125,1.0,8.0,82,0.00,,,0.00,weatherlink.com 1.10,2013-10-14 04:39:00,
2013-10-14 00:54:00,54.5,49.0,30.36,East,83,4.0,5.0,82,0.00,,,0.00,weatherlink.com 1.10,2013-10-14 04:54:00,
2013-10-14 01:09:00,54.3,49.0,30.36,ENE,77,1.0,6.0,82,0.00,,,0.00,weatherlink.com 1.10,2013-10-14 05:09:00,
2013-10-14 01:24:00,54.3,49.0,30.35,East,97,2.0,6.0,82,0.00,,,0.00,weatherlink.com 1.10,2013-10-14 05:24:00,
2013-10-14 01:39:00,54.1,49.0,30.35,East,101,3.0,5.0,82,0.00,,,0.00,weatherlink.com 1.10,2013-10-14 05:39:00,
2013-10-14 01:54:00,53.8,48.0,30.35,East,94,2.0,6.0,82,0.00,,,0.00,weatherlink.com 1.10,2013-10-14 05:54:00,
2013-10-14 02:09:00,53.6,48.0,30.35,East,86,1.0,5.0,82,0.00,,,0.00,weatherlink.com 1.10,2013-10-14 06:09:00,
2013-10-14 02:24:00,53.6,48.0,30.34,ESE,103,2.0,4.0,82,0.00,,,0.00,weatherlink.com 1.10,2013-10-14 06:24:00,
2013-10-14 02:39:00,53.5,48.0,30.34,ENE,65,3.0,4.0,81,0.00,,,0.00,weatherlink.com 1.10,2013-10-14 06:39:00,
2013-10-14 02:54:00,53.3,47.0,30.34,ENE,75,2.0,5.0,80,0.00,,,0.00,weatherlink.com 1.10,2013-10-14 06:54:00,
2013-10-14 03:10:00,53.2,47.0,30.34,East,81,3.0,5.0,80,0.00,,,0.00,weatherlink.com 1.10,2013-10-14 07:10:00,
2013-10-14 03:25:00,53.1,47.0,30.34,East,96,1.0,4.0,80,0.00,,,0.00,weatherlink.com 1.10,2013-10-14 07:25:00,
2013-10-14 03:40:00,53.0,47.0,30.34,ENE,77,1.0,4.0,80,0.00,,,0.00,weatherlink.com 1.10,2013-10-14 07:40:00,
2013-10-14 03:55:00,53.0,47.0,30.34,ENE,63,2.0,4.0,80,0.00,,,0.00,weatherlink.com 1.10,2013-10-14 07:55:00,
2013-10-14 04:10:00,52.8,47.0,30.34,ENE,75,0.0,4.0,80,0.00,,,0.00,weatherlink.com 1.10,2013-10-14 08:10:00,
2013-10-14 04:25:00,52.4,46.0,30.34,ENE,76,0.0,2.0,80,0.00,,,0.00,weatherlink.com 1.10,2013-10-14 08:25:00,
2013-10-14 04:41:00,52.0,47.0,30.34,East,85,1.0,1.0,82,0.00,,,0.00,weatherlink.com 1.10,2013-10-14 08:41:00,
2013-10-14 04:58:00,51.8,47.0,30.34,ENE,68,2.0,4.0,82,0.00,,,0.00,weatherlink.com 1.10,2013-10-14 08:58:00,
2013-10-14 05:15:00,51.9,46.0,30.34,ENE,74,1.0,3.0,81,0.00,,,0.00,weatherlink.com 1.10,2013-10-14 09:15:00,
2013-10-14 05:33:00,51.8,46.0,30.34,East,96,2.0,3.0,81,0.00,,,0.00,weatherlink.com 1.10,2013-10-14 09:33:00,
2013-10-14 05:50:00,51.7,46.0,30.34,East,84,2.0,3.0,81,0.00,,,0.00,weatherlink.com 1.10,2013-10-14 09:50:00,
2013-10-14 06:08:00,51.4,46.0,30.34,ESE,105,1.0,2.0,81,0.00,,,0.00,weatherlink.com 1.10,2013-10-14 10:08:00,
2013-10-14 06:24:00,50.6,46.0,30.34,ESE,103,0.0,1.0,83,0.00,,,0.00,weatherlink.com 1.10,2013-10-14 10:24:00,
2013-10-14 06:42:00,49.8,45.0,30.35,ESE,103,0.0,0.0,84,0.00,,,0.00,weatherlink.com 1.10,2013-10-14 10:42:00,
2013-10-14 06:59:00,49.5,45.0,30.35,ESE,103,0.0,0.0,85,0.00,,,0.00,weatherlink.com 1.10,2013-10-14 10:59:00,
2013-10-14 07:17:00,49.5,46.0,30.35,ESE,103,0.0,1.0,86,0.00,,,0.00,weatherlink.com 1.10,2013-10-14 11:17:00,
2013-10-14 07:33:00,51.0,46.0,30.35,East,94,0.0,1.0,84,0.00,,,0.00,weatherlink.com 1.10,2013-10-14 11:33:00,
2013-10-14 07:51:00,52.8,47.0,30.35,East,95,0.0,1.0,81,0.00,,,0.00,weatherlink.com 1.10,2013-10-14 11:51:00,
2013-10-14 08:08:00,54.6,48.0,30.36,East,96,1.0,2.0,77,0.00,,,0.00,weatherlink.com 1.10,2013-10-14 12:08:00,
2013-10-14 08:26:00,55.0,48.0,30.36,ENE,77,3.0,5.0,76,0.00,,,0.00,weatherlink.com 1.10,2013-10-14 12:26:00,
2013-10-14 08:43:00,56.1,48.0,30.36,ENE,62,3.0,5.0,74,0.00,,,0.00,weatherlink.com 1.10,2013-10-14 12:43:00,
2013-10-14 09:00:00,57.3,48.0,30.36,ENE,71,3.0,4.0,72,0.00,,,0.00,weatherlink.com 1.10,2013-10-14 13:00:00,
2013-10-14 09:17:00,57.4,48.0,30.37,East,83,5.0,6.0,71,0.00,,,0.00,weatherlink.com 1.10,2013-10-14 13:17:00,
2013-10-14 09:35:00,57.8,49.0,30.37,ESE,117,0.0,4.0,72,0.00,,,0.00,weatherlink.com 1.10,2013-10-14 13:35:00,
2013-10-14 09:51:00,57.8,49.0,30.37,ENE,59,7.0,9.0,72,0.00,,,0.00,weatherlink.com 1.10,2013-10-14 13:51:00,
2013-10-14 10:09:00,58.3,49.0,30.36,NNW,329,1.0,7.0,71,0.00,,,0.00,weatherlink.com 1.10,2013-10-14 14:09:00,
2013-10-14 10:26:00,58.8,49.0,30.36,East,82,2.0,4.0,70,0.00,,,0.00,weatherlink.com 1.10,2013-10-14 14:26:00,
2013-10-14 10:43:00,59.0,49.0,30.35,NNE,33,2.0,7.0,70,0.00,,,0.00,weatherlink.com 1.10,2013-10-14 14:43:00,
2013-10-14 11:18:00,60.7,50.0,30.34,NNE,27,2.0,5.0,69,0.00,,,0.00,weatherlink.com 1.10,2013-10-14 15:18:00,
2013-10-14 11:36:00,60.7,49.0,30.33,NNE,22,2.0,5.0,66,0.00,,,0.00,weatherlink.com 1.10,2013-10-14 15:36:00,
2013-10-14 11:52:00,60.9,50.0,30.33,NNW,338,4.0,6.0,67,0.00,,,0.00,weatherlink.com 1.10,2013-10-14 15:52:00,
2013-10-14 12:10:00,60.8,49.0,30.33,NNE,27,0.0,10.0,66,0.00,,,0.00,weatherlink.com 1.10,2013-10-14 16:10:00,
2013-10-14 12:27:00,61.5,50.0,30.32,North,359,3.0,6.0,66,0.00,,,0.00,weatherlink.com 1.10,2013-10-14 16:27:00,
2013-10-14 12:45:00,61.3,50.0,30.31,NW,316,2.0,6.0,66,0.00,,,0.00,weatherlink.com 1.10,2013-10-14 16:45:00,
2013-10-14 13:02:00,61.7,49.0,30.30,WNW,297,3.0,6.0,64,0.00,,,0.00,weatherlink.com 1.10,2013-10-14 17:02:00,
2013-10-14 13:19:00,62.8,49.0,30.30,NNE,13,3.0,4.0,61,0.00,,,0.00,weatherlink.com 1.10,2013-10-14 17:19:00,
2013-10-14 13:36:00,62.7,48.0,30.29,NW,316,3.0,6.0,59,0.00,,,0.00,weatherlink.com 1.10,2013-10-14 17:36:00,
2013-10-14 13:53:00,63.2,48.0,30.28,NW,316,3.0,4.0,57,0.00,,,0.00,weatherlink.com 1.10,2013-10-14 17:53:00,
2013-10-14 14:11:00,63.6,48.0,30.28,NNW,338,4.0,5.0,58,0.00,,,0.00,weatherlink.com 1.10,2013-10-14 18:11:00,
2013-10-14 14:46:00,64.5,49.0,30.27,NNE,32,2.0,6.0,58,0.00,,,0.00,weatherlink.com 1.10,2013-10-14 18:46:00,
2013-10-14 15:02:00,64.2,50.0,30.27,SE,129,6.0,7.0,61,0.00,,,0.00,weatherlink.com 1.10,2013-10-14 19:02:00,
2013-10-14 15:20:00,62.9,51.0,30.27,SE,141,4.0,10.0,66,0.00,,,0.00,weatherlink.com 1.10,2013-10-14 19:20:00,
2013-10-14 15:37:00,63.4,51.0,30.26,SE,135,5.0,8.0,65,0.00,,,0.00,weatherlink.com 1.10,2013-10-14 19:37:00,
2013-10-14 15:54:00,62.4,51.0,30.26,SE,142,5.0,10.0,67,0.00,,,0.00,weatherlink.com 1.10,2013-10-14 19:54:00,
2013-10-14 16:11:00,61.1,52.0,30.26,SE,129,2.0,9.0,71,0.00,,,0.00,weatherlink.com 1.10,2013-10-14 20:11:00,
2013-10-14 16:29:00,61.8,52.0,30.26,SE,131,4.0,10.0,70,0.00,,,0.00,weatherlink.com 1.10,2013-10-14 20:29:00,
2013-10-14 16:45:00,61.5,52.0,30.26,SSE,156,5.0,9.0,70,0.00,,,0.00,weatherlink.com 1.10,2013-10-14 20:45:00,
2013-10-14 17:03:00,61.4,52.0,30.26,SE,145,5.0,11.0,70,0.00,,,0.00,weatherlink.com 1.10,2013-10-14 21:03:00,
2013-10-14 17:20:00,61.3,52.0,30.26,SSE,158,5.0,8.0,71,0.00,,,0.00,weatherlink.com 1.10,2013-10-14 21:20:00,
2013-10-14 17:38:00,60.9,52.0,30.27,SE,134,4.0,9.0,72,0.00,,,0.00,weatherlink.com 1.10,2013-10-14 21:38:00,
2013-10-14 17:54:00,60.2,52.0,30.27,SSE,150,7.0,9.0,73,0.00,,,0.00,weatherlink.com 1.10,2013-10-14 21:54:00,
2013-10-14 18:12:00,59.3,52.0,30.27,SE,131,3.0,9.0,76,0.00,,,0.00,weatherlink.com 1.10,2013-10-14 22:12:00,
2013-10-14 18:29:00,58.7,52.0,30.27,ESE,115,3.0,6.0,77,0.00,,,0.00,weatherlink.com 1.10,2013-10-14 22:29:00,
2013-10-14 18:47:00,58.4,52.0,30.28,ESE,118,5.0,5.0,78,0.00,,,0.00,weatherlink.com 1.10,2013-10-14 22:47:00,
2013-10-14 19:03:00,58.1,52.0,30.28,SE,127,1.0,4.0,79,0.00,,,0.00,weatherlink.com 1.10,2013-10-14 23:03:00,
2013-10-14 19:21:00,58.0,52.0,30.28,SE,134,1.0,6.0,79,0.00,,,0.00,weatherlink.com 1.10,2013-10-14 23:21:00,
2013-10-14 19:38:00,57.8,52.0,30.28,East,90,0.0,3.0,80,0.00,,,0.00,weatherlink.com 1.10,2013-10-14 23:38:00,
2013-10-14 19:55:00,57.5,52.0,30.28,ESE,113,0.0,2.0,81,0.00,,,0.00,weatherlink.com 1.10,2013-10-14 23:55:00,
2013-10-14 20:12:00,57.1,52.0,30.27,SE,127,0.0,1.0,82,0.00,,,0.00,weatherlink.com 1.10,2013-10-15 00:12:00,
2013-10-14 20:30:00,57.1,52.0,30.27,ESE,103,1.0,1.0,82,0.00,,,0.00,weatherlink.com 1.10,2013-10-15 00:30:00,
2013-10-14 20:46:00,56.4,51.0,30.27,ESE,117,0.0,1.0,83,0.00,,,0.00,weatherlink.com 1.10,2013-10-15 00:46:00,
2013-10-14 21:04:00,56.0,51.0,30.27,East,100,0.0,1.0,84,0.00,,,0.00,weatherlink.com 1.10,2013-10-15 01:04:00,
2013-10-14 21:21:00,55.6,51.0,30.27,East,101,0.0,1.0,85,0.00,,,0.00,weatherlink.com 1.10,2013-10-15 01:21:00,
2013-10-14 21:39:00,55.1,51.0,30.27,East,101,0.0,0.0,85,0.00,,,0.00,weatherlink.com 1.10,2013-10-15 01:39:00,
2013-10-14 21:55:00,55.1,51.0,30.27,East,101,0.0,0.0,86,0.00,,,0.00,weatherlink.com 1.10,2013-10-15 01:55:00,
2013-10-14 22:13:00,54.6,51.0,30.27,East,101,0.0,1.0,87,0.00,,,0.00,weatherlink.com 1.10,2013-10-15 02:13:00,
2013-10-14 22:30:00,54.6,51.0,30.27,East,101,0.0,0.0,87,0.00,,,0.00,weatherlink.com 1.10,2013-10-15 02:30:00,
2013-10-14 22:47:00,55.0,51.0,30.27,North,356,0.0,1.0,86,0.00,,,0.00,weatherlink.com 1.10,2013-10-15 02:47:00,
2013-10-14 23:05:00,54.1,50.0,30.27,East,79,0.0,0.0,87,0.00,,,0.00,weatherlink.com 1.10,2013-10-15 03:05:00,
2013-10-14 23:22:00,53.6,51.0,30.28,East,79,0.0,1.0,89,0.00,,,0.00,weatherlink.com 1.10,2013-10-15 03:22:00,
2013-10-14 23:39:00,53.5,50.0,30.28,East,91,0.0,1.0,89,0.00,,,0.00,weatherlink.com 1.10,2013-10-15 03:39:00,
2013-10-14 23:56:00,53.3,51.0,30.27,East,101,0.0,2.0,90,0.00,,,0.00,weatherlink.com 1.10,2013-10-15 03:56:00,